Wind_Speed
10 11 12 14 15 16 18 19 21 23 24 26 27 29 30 31 33 34 35 36 36 37 37 38 38 38 39 39 40 41 41 41 41 42 41 40 38 35 32 29 28 27 27
12 13 15 16 18 19 21 23 25 26 28 30 31 33 34 35 37 38 39 40 40 41 41 42 42 42 42 42 42 42 42 43 43 44 45 44 43 41 38 35 33 31 30
14 16 18 20 21 23 25 26 28 30 31 33 35 36 38 39 41 42 43 44 44 45 46 46 47 47 47 47 46 46 45 45 45 46 47 47 47 46 44 41 38 36 34
19 20 22 23 25 26 28 29 31 32 34 36 38 39 41 42 44 45 46 47 48 49 50 50 51 51 51 52 51 51 50 49 48 49 49 49 49 49 48 47 44 41 39
22 23 25 26 27 28 30 31 33 35 36 38 40 42 44 45 47 49 50 51 52 53 54 54 55 55 55 56 56 56 55 54 54 53 53 52 51 52 51 51 50 47 44
24 25 26 27 28 30 31 33 35 37 39 41 43 45 47 49 51 53 54 56 57 58 59 60 61 61 61 60 60 60 60 59 59 58 58 56 55 54 54 54 53 52 49
24 25 26 28 29 31 33 35 37 39 41 44 46 48 51 53 56 58 60 62 64 65 66 67 68 68 68 67 66 66 65 64 64 63 63 62 60 59 57 56 56 55 54
25 26 27 29 31 33 35 38 40 42 45 47 50 53 56 59 62 64 67 69 71 73 74 76 76 76 76 75 74 73 71 70 69 68 68 67 66 65 62 60 59 58 57
26 27 29 31 33 35 38 40 43 46 49 52 55 58 61 64 68 71 74 76 79 81 82 84 85 85 85 84 83 81 79 77 76 74 73 72 71 70 68 65 63 62 61
27 29 31 33 36 38 40 43 46 49 52 56 59 62 66 69 73 76 80 84 87 89 91 93 94 95 95 94 93 91 88 85 83 81 79 77 76 75 73 71 69 66 64
29 31 33 35 38 40 43 46 49 52 56 59 63 66 70 74 77 81 85 89 93 96 99 101 103 104 104 103 102 101 99 96 92 88 85 83 82 80 79 77 75 72 69
30 33 35 37 40 43 46 49 52 56 59 62 66 70 73 77 81 86 90 95 99 102 104 106 106 106 105 105 104 104 104 103 100 97 93 90 88 86 84 82 80 78 75
32 35 37 40 42 46 49 52 55 58 62 65 69 73 77 81 86 90 95 99 102 103 103 101 98 96 95 95 95 96 98 100 102 101 99 96 94 91 89 87 85 83 81
34 37 39 42 45 48 51 54 57 61 64 68 72 76 80 85 89 94 97 99 99 97 92 87 84 81 80 79 80 81 83 86 91 95 98 99 98 96 94 93 91 89 86
36 39 42 44 47 50 53 56 59 63 67 70 74 79 83 88 92 95 96 95 91 84 78 73 70 68 67 67 68 70 71 74 78 83 90 95 98 99 99 97 96 94 92
38 41 44 47 49 53 55 58 61 65 69 72 77 82 86 90 92 93 92 86 79 73 69 67 65 63 62 62 62 63 64 66 69 73 79 86 93 98 100 101 100 99 97
41 43 46 49 51 54 57 60 63 67 70 75 79 84 88 90 91 90 85 78 73 69 67 65 64 62 61 61 61 61 61 62 64 67 72 78 85 93 99 102 104 103 102
43 45 48 51 53 56 58 62 65 69 72 77 81 86 88 89 88 84 78 73 70 67 66 65 64 64 63 63 62 62 63 63 63 65 67 72 79 86 94 101 105 106 105
45 47 49 52 54 57 60 64 67 70 74 79 83 86 87 87 84 78 74 70 67 66 66 65 65 65 64 63 63 63 63 64 65 65 67 69 74 80 89 97 104 107 108
46 49 51 53 56 59 62 65 68 72 76 80 83 85 85 83 79 75 71 68 66 66 66 65 64 64 64 64 63 63 63 64 64 66 67 69 71 76 84 93 101 107 110
48 50 52 54 57 60 63 66 69 73 77 80 83 84 83 80 76 72 68 66 66 66 66 64 64 64 62 63 63 61 60 61 62 65 67 68 70 74 79 87 96 104 110
49 51 53 55 58 60 63 67 70 73 77 80 82 82 80 76 73 70 67 66 66 66 65 64 64 63 61 61 61 59 56 53 56 60 64 67 70 72 76 81 90 99 107
50 52 54 56 58 61 64 67 71 74 77 80 81 80 78 74 71 68 66 66 65 65 64 63 63 61 59 56 56 55 53 48 46 51 58 64 68 70 73 77 84 94 103
51 53 55 57 59 61 65 68 71 74 77 79 80 78 75 72 70 67 66 65 64 64 63 62 61 59 58 55 52 49 47 45 41 41 49 57 63 67 70 74 80 87 96
52 53 55 57 60 62 65 68 71 74 77 79 79 76 73 70 68 66 65 64 64 63 62 61 59 57 56 54 51 47 43 39 36 35 39 48 56 62 66 70 74 80 89
53 55 57 59 61 63 66 69 72 74 77 78 77 75 71 69 67 65 64 63 63 63 61 59 57 55 54 51 48 45 42 36 32 29 30 38 47 55 61 65 69 74 81
Wind_Direction
341 334 328 322 319 316 313 310 308 305 303 301 300 298 297 295 294 293 292 290 288 286 285 283 281 279 277 275 273 271 268 265 263 261 260 258 257 256 253 250 247 243 240
329 323 319 315 313 311 309 307 306 304 303 301 300 299 298 296 294 292 291 289 288 286 284 282 280 278 276 274 273 271 269 266 264 261 259 257 256 255 253 250 248 244 241
318 315 313 312 311 310 309 307 306 305 304 303 302 301 299 297 296 294 292 290 288 286 284 282 280 278 276 274 271 269 268 266 264 262 259 257 255 254 252 250 248 245 242
314 313 313 312 312 311 309 309 308 307 306 305 303 301 299 298 296 295 293 291 288 286 284 282 280 278 275 273 271 268 266 264 262 261 259 257 255 253 251 249 247 245 243
314 315 314 313 313 312 311 311 310 308 306 305 303 302 301 299 297 296 294 292 290 287 285 282 280 278 275 273 270 268 265 263 260 259 258 256 255 253 251 249 247 245 243
316 316 315 315 314 314 313 312 310 308 307 305 304 303 302 300 298 297 295 293 291 289 286 284 281 278 276 273 270 267 265 262 259 257 256 254 253 252 250 248 247 245 243
317 317 316 316 315 314 313 311 310 309 308 307 306 305 304 302 301 299 297 295 293 290 288 286 283 280 277 274 271 268 265 262 259 256 254 253 251 250 249 247 246 244 243
319 318 317 317 316 315 314 313 312 311 311 309 308 307 306 305 304 302 300 297 295 293 290 287 284 281 278 276 272 269 266 262 259 256 254 251 250 248 247 245 245 243 242
319 319 318 317 316 315 315 315 314 313 313 312 311 310 309 307 305 303 301 299 296 294 291 289 286 283 279 276 273 269 266 263 259 256 253 251 249 247 245 244 243 242 241
319 319 319 318 317 317 317 317 316 315 315 314 313 312 310 308 306 304 302 300 297 294 292 289 286 283 280 277 274 270 266 263 259 256 253 250 248 246 244 242 241 240 239
321 321 320 319 319 319 319 318 318 317 317 316 315 313 311 308 306 304 302 299 297 294 292 289 287 284 281 278 275 271 268 264 260 256 252 249 247 245 243 241 239 238 237
322 321 321 321 321 321 320 320 319 319 318 316 315 312 310 308 306 304 302 300 298 295 293 291 289 286 283 280 277 274 269 265 261 257 253 249 246 244 242 240 238 237 235
323 323 324 323 323 322 321 320 320 319 317 316 314 313 311 309 307 305 303 301 298 297 295 293 290 288 285 282 278 275 271 267 262 258 253 249 245 242 240 239 237 235 234
325 325 325 324 323 323 322 321 320 319 317 316 315 313 312 310 308 306 305 303 301 300 297 294 291 288 285 281 278 274 270 266 262 258 253 249 245 241 239 237 235 234 233
326 326 326 325 324 323 322 321 320 319 318 317 316 315 313 312 310 309 307 307 305 303 300 297 294 290 286 282 278 274 269 265 260 256 251 248 244 241 237 235 233 232 231
327 326 326 325 324 323 323 322 321 320 319 318 317 316 315 314 313 311 311 310 308 306 303 301 298 294 290 286 281 276 271 266 260 255 250 246 242 239 236 233 232 230 229
327 326 326 325 324 324 323 322 322 321 321 320 319 319 318 317 316 315 315 313 311 309 307 305 302 298 293 289 284 279 274 269 263 257 251 245 240 237 234 232 230 228 227
326 326 326 326 325 325 324 324 324 323 323 322 321 321 321 320 319 319 318 316 314 312 310 307 304 301 296 291 286 281 277 271 266 260 253 246 240 235 232 230 228 226 225
326 326 326 326 326 325 325 325 325 325 324 324 324 323 323 322 322 321 320 318 317 315 313 310 307 304 300 295 289 284 278 272 267 261 255 248 241 236 231 228 226 224 223
327 327 327 327 326 326 326 327 327 327 326 326 326 325 325 325 324 324 323 321 320 318 316 313 310 307 304 299 293 287 280 273 266 260 254 248 243 237 231 227 224 222 221
328 328 328 328 327 327 328 328 329 328 328 328 328 328 328 327 327 326 325 324 322 321 319 317 314 312 308 303 298 292 284 275 266 258 252 247 242 237 232 227 223 221 219
330 330 330 329 329 329 330 330 331 330 330 330 330 330 330 330 330 329 328 326 325 324 322 320 318 316 313 311 306 300 290 277 266 258 250 245 240 236 233 228 224 220 219
332 332 332 331 331 331 332 332 332 332 333 333 333 332 332 332 332 331 330 329 328 328 326 325 323 321 320 318 314 310 302 289 270 256 248 243 238 235 232 228 225 221 218
335 334 334 334 333 333 334 334 335 335 335 335 335 335 334 334 334 334 333 332 332 331 330 329 328 326 325 324 322 318 312 303 286 261 246 240 236 233 230 228 225 222 219
340 338 337 336 336 336 336 337 337 337 337 337 338 337 337 336 336 336 336 335 335 334 333 333 332 330 329 329 328 325 320 312 298 276 251 238 234 231 228 226 225 223 221
344 342 340 339 339 338 338 339 339 339 339 340 340 339 339 338 338 338 338 338 338 337 337 336 335 334 333 332 332 331 328 322 311 289 261 240 232 228 226 224 223 223 221
Height
5877 5876 5875 5875 5874 5873 5871 5870 5869 5867 5866 5864 5863 5861 5859 5858 5856 5855 5853 5852 5851 5850 5849 5848 5847 5847 5847 5847 5847 5847 5848 5849 5851 5851 5852 5854 5856 5858 5860 5861 5863 5864 5865
5876 5875 5874 5873 5872 5870 5869 5867 5865 5864 5862 5860 5858 5856 5854 5852 5851 5849 5847 5845 5844 5843 5842 5841 5840 5839 5839 5839 5839 5840 5840 5841 5842 5843 5844 5846 5848 5850 5853 5855 5857 5858 5860
5875 5874 5872 5870 5869 5867 5865 5863 5862 5859 5857 5855 5853 5851 5848 5846 5844 5842 5840 5838 5837 5835 5834 5832 5831 5831 5830 5830 5830 5831 5832 5833 5833 5834 5835 5837 5839 5842 5844 5847 5849 5852 5854
5873 5871 5869 5867 5865 5863 5861 5859 5857 5855 5852 5850 5847 5844 5842 5839 5837 5834 5832 5829 5827 5826 5824 5823 5821 5821 5820 5820 5820 5820 5821 5823 5823 5824 5825 5827 5829 5831 5835 5838 5841 5844 5846
5869 5867 5865 5863 5861 5859 5857 5854 5852 5849 5846 5843 5840 5837 5834 5831 5828 5825 5822 5819 5817 5815 5813 5811 5810 5809 5808 5808 5808 5808 5809 5811 5812 5813 5814 5816 5818 5821 5824 5827 5831 5835 5838
5866 5864 5861 5859 5857 5854 5852 5849 5846 5843 5840 5837 5833 5830 5826 5822 5819 5815 5812 5808 5805 5802 5800 5798 5796 5795 5794 5794 5794 5794 5796 5797 5799 5800 5802 5804 5806 5809 5812 5816 5820 5824 5828
5862 5860 5857 5855 5852 5849 5847 5844 5840 5837 5833 5829 5825 5821 5816 5812 5808 5803 5799 5794 5790 5787 5784 5781 5779 5778 5777 5777 5777 5778 5780 5781 5784 5785 5787 5790 5793 5795 5799 5804 5808 5812 5817
5858 5856 5853 5850 5847 5844 5841 5837 5833 5829 5825 5820 5815 5810 5805 5800 5794 5789 5783 5778 5773 5769 5765 5762 5759 5757 5757 5756 5757 5758 5760 5763 5766 5769 5771 5774 5777 5780 5785 5790 5794 5799 5804
5854 5852 5849 5846 5842 5839 5834 5830 5826 5821 5816 5810 5805 5799 5793 5786 5780 5773 5767 5760 5754 5748 5743 5739 5735 5733 5732 5732 5732 5734 5737 5740 5744 5749 5753 5756 5759 5764 5769 5774 5779 5784 5790
5850 5847 5844 5840 5836 5832 5828 5823 5818 5812 5806 5800 5794 5787 5780 5773 5765 5757 5749 5741 5733 5726 5719 5713 5708 5704 5703 5702 5703 5706 5710 5714 5719 5725 5730 5735 5739 5745 5751 5757 5763 5769 5775
5846 5843 5839 5835 5830 5825 5820 5815 5809 5803 5796 5789 5782 5775 5768 5759 5751 5742 5732 5722 5712 5702 5693 5685 5678 5673 5670 5670 5670 5672 5677 5683 5690 5698 5705 5711 5717 5724 5731 5738 5744 5752 5759
5841 5837 5833 5828 5823 5818 5812 5806 5800 5793 5786 5779 5771 5763 5755 5745 5735 5724 5712 5700 5687 5676 5665 5655 5646 5640 5636 5634 5634 5636 5641 5648 5656 5665 5675 5683 5691 5700 5708 5716 5724 5732 5741
5836 5831 5827 5822 5816 5810 5804 5798 5791 5784 5776 5768 5760 5750 5740 5729 5717 5703 5690 5676 5662 5649 5637 5626 5617 5610 5605 5602 5601 5602 5605 5611 5619 5629 5641 5652 5662 5672 5682 5692 5702 5711 5720
5830 5825 5820 5814 5809 5802 5796 5789 5782 5774 5766 5757 5747 5736 5724 5711 5697 5682 5666 5650 5635 5621 5610 5600 5591 5584 5579 5574 5572 5572 5574 5577 5583 5593 5604 5616 5629 5642 5654 5666 5677 5687 5698
5824 5819 5813 5807 5801 5794 5787 5780 5772 5763 5754 5744 5733 5720 5706 5691 5675 5658 5641 5624 5609 5596 5585 5576 5568 5562 5557 5552 5549 5547 5547 5549 5553 5559 5569 5581 5594 5608 5623 5636 5649 5662 5674
5818 5813 5806 5800 5793 5786 5778 5770 5762 5752 5741 5730 5717 5702 5687 5670 5653 5635 5618 5601 5587 5575 5565 5556 5548 5542 5536 5531 5527 5524 5523 5524 5526 5530 5537 5547 5559 5573 5589 5605 5619 5634 5647
5812 5806 5799 5792 5785 5777 5769 5760 5750 5740 5728 5715 5700 5684 5667 5649 5631 5613 5596 5581 5568 5557 5546 5537 5529 5521 5515 5510 5506 5502 5500 5500 5501 5504 5508 5516 5526 5539 5555 5571 5587 5604 5620
5805 5799 5792 5785 5777 5768 5759 5749 5739 5727 5714 5699 5684 5666 5648 5629 5611 5593 5577 5564 5551 5539 5529 5519 5510 5502 5494 5488 5483 5479 5476 5476 5476 5478 5482 5487 5496 5507 5521 5537 5554 5572 5591
5799 5792 5785 5777 5768 5759 5749 5738 5726 5714 5699 5684 5667 5649 5630 5611 5593 5577 5562 5548 5535 5524 5512 5501 5491 5481 5473 5465 5459 5455 5452 5450 5450 5452 5455 5460 5468 5478 5490 5504 5521 5541 5561
5792 5785 5777 5769 5759 5749 5738 5727 5714 5700 5685 5669 5651 5633 5614 5595 5578 5562 5547 5534 5521 5509 5496 5484 5473 5462 5451 5442 5435 5430 5426 5423 5422 5424 5428 5434 5442 5450 5460 5473 5491 5510 5530
5786 5778 5769 5760 5750 5739 5728 5716 5703 5688 5672 5655 5637 5618 5599 5581 5564 5549 5534 5520 5507 5494 5481 5467 5455 5444 5432 5420 5411 5404 5400 5396 5394 5395 5400 5408 5415 5423 5432 5445 5462 5480 5500
5779 5770 5761 5751 5741 5730 5718 5705 5691 5676 5660 5642 5624 5604 5586 5568 5552 5536 5521 5508 5494 5480 5466 5452 5439 5426 5415 5401 5387 5377 5372 5372 5368 5368 5373 5380 5388 5398 5409 5422 5437 5454 5471
5772 5763 5753 5743 5731 5720 5707 5694 5679 5664 5647 5630 5611 5592 5573 5556 5540 5524 5510 5496 5481 5467 5453 5438 5424 5409 5397 5386 5371 5357 5347 5343 5343 5345 5348 5354 5363 5375 5387 5399 5412 5427 5444
5765 5755 5745 5734 5722 5710 5697 5683 5668 5653 5636 5618 5599 5581 5562 5545 5529 5514 5499 5485 5470 5455 5440 5426 5411 5396 5382 5370 5359 5346 5334 5324 5320 5322 5327 5332 5341 5352 5365 5377 5390 5405 5420
5757 5747 5736 5725 5713 5700 5687 5672 5657 5641 5625 5607 5588 5570 5552 5535 5519 5504 5489 5475 5460 5445 5430 5415 5400 5386 5371 5357 5345 5334 5323 5314 5307 5304 5308 5314 5322 5333 5345 5358 5371 5384 5398
5751 5740 5728 5716 5704 5691 5677 5662 5647 5631 5614 5596 5578 5561 5544 5527 5511 5496 5481 5466 5451 5436 5420 5405 5391 5377 5363 5349 5336 5324 5313 5305 5297 5293 5294 5299 5307 5317 5328 5340 5353 5366 5378